Timestamp[UTC];2m Lufttemperatur [degC] (tas);Stations-Luftdruck [Pa] (ps);relative Luftfeuchtigkeit [%] (hurs);spezifische Luftfeuchtigkeit [kg/kg] (huss);Niederschlagsmenge [mm] (pr);Windgeschwindigkeit in 2m [m/s] (sfcWind);Windrichtung [deg];maximale Windgeschwindigkeit [m/s] (wsgsmax);u-Windkomponente [m/s] (uas);v-Windkomponente [m/s] (vas);Sonneneinstrahlung [W/m2];Blitzrate [n];Blitzentfernung [km];Bodenfeuchte in 5cm Tiefe [vol%];Bodenfeuchte in 15cm Tiefe [vol%];Bodenfeuchte in 30cm Tiefe [vol%];Bodenfeuchte in 60cm Tiefe [vol%];Bodentemperatur in 5cm Tiefe [degC];Bodentemperatur in 15cm Tiefe [degC];Bodentemperatur in 30cm Tiefe [degC];Bodentemperatur in 60cm Tiefe [degC];Matrixpotential in 30cm Tiefe [kPa];Bodenfeuchte aus CRNS [vol%] (mrso);Neutronen Anzahl [N/h]
2023-09-01 00:00:00;13,4;99490;92;0,0088;0,0;1,3;171;2,0;0,2;-1,3;0;0;nan;18,8;18,6;10,9;19,0;15,3;15,7;16,0;16,2;15,7;19,0;1609
2023-09-01 01:00:00;13,5;99463;92;0,009;0,0;1,0;176;1,8;0,07;-1,01;0;0;nan;18,8;18,6;10,9;19,0;15,2;15,7;16,0;16,2;15,7;19,0;1607
2023-09-01 02:00:00;13,8;99450;92;0,0091;0,0;0,9;172;1,4;0,13;-0,87;0;0;nan;18,8;18,6;10,9;19,0;15,1;15,6;16,0;16,2;15,6;19,2;1604
2023-09-01 03:00:00;14,1;99430;93;0,0094;0,0;0,9;128;1,3;0,68;-0,54;0;0;nan;18,9;18,6;10,9;19,0;15,2;15,6;16,0;16,2;15,7;19,7;1592
2023-09-01 04:00:00;14,6;99417;92;0,0096;0,0;1,1;154;1,8;0,49;-1,0;2;0;nan;18,9;18,6;10,9;19,0;15,2;15,6;15,9;16,2;15,7;20,1;1583
2023-09-01 05:00:00;15,1;99420;92;0,0099;0,0;1,3;171;2,1;0,19;-1,22;22;0;nan;18,9;18,6;10,9;19,0;15,3;15,6;15,9;16,2;15,7;20,5;1575
2023-09-01 06:00:00;15,2;99430;95;0,0103;2,84;1,4;202;2,2;-0,51;-1,29;23;0;nan;18,9;18,6;10,9;19,0;15,4;15,6;15,9;16,2;15,8;20,7;1571
2023-09-01 07:00:00;15,0;99442;99;0,0106;5,37;1,1;192;1,9;-0,23;-1,1;29;0;nan;18,9;18,6;10,9;19,0;15,4;15,6;15,9;16,1;15,8;21,1;1562
2023-09-01 08:00:00;16,5;99430;99;0,0117;0,27;1,9;155;3,5;0,8;-1,72;165;0;nan;19,0;18,6;10,9;19,0;15,6;15,6;15,9;16,1;15,9;21,2;1560
2023-09-01 09:00:00;17,4;99438;98;0,0122;0,73;1,8;168;3,0;0,34;-1,62;128;0;nan;19,1;18,6;10,9;19,0;15,8;15,7;15,9;16,1;16,0;21,4;1556
2023-09-01 10:00:00;17,7;99472;96;0,0122;2,0;2,0;281;3,8;-1,97;0,37;108;0;nan;19,2;18,6;10,9;19,0;16,0;15,8;15,9;16,1;16,1;21,7;1549
2023-09-01 11:00:00;17,9;99473;97;0,0125;0,52;0,9;273;1,7;-0,87;0,05;154;0;nan;19,5;18,6;10,9;19,0;16,2;15,9;15,9;16,1;16,1;22,1;1542
2023-09-01 12:00:00;18,8;99466;94;0,0128;0,12;0,9;229;2,4;-0,69;-0,6;182;0;nan;19,9;18,6;10,9;19,0;16,4;16,0;15,9;16,1;16,2;22,4;1535
2023-09-01 13:00:00;19,8;99462;90;0,013;0,0;1,9;265;5,0;-1,86;-0,15;305;0;nan;20,3;18,6;10,9;19,0;16,6;16,1;15,9;16,1;16,3;22,7;1530
2023-09-01 14:00:00;18,6;99500;90;0,0122;0,03;5,0;309;9,2;-3,9;3,1;188;0;nan;20,6;18,6;10,9;19,0;16,8;16,2;16,0;16,1;16,4;23,3;1519
2023-09-01 15:00:00;19,4;99565;87;0,0123;0,0;4,2;305;6,8;-3,46;2,39;290;0;nan;20,9;18,6;10,9;19,0;17,0;16,3;16,0;16,1;16,5;23,2;1520
2023-09-01 16:00:00;19,2;99630;86;0,0121;0,0;3,2;331;7,0;-1,57;2,79;138;0;nan;21,1;18,6;10,9;19,0;17,1;16,5;16,0;16,1;16,6;23,4;1517
2023-09-01 17:00:00;19,3;99675;86;0,0121;0,0;1,3;335;2,2;-0,52;1,15;68;0;nan;21,3;18,6;10,9;19,0;17,1;16,6;16,1;16,1;16,6;23,5;1515
2023-09-01 18:00:00;17,4;99720;92;0,0115;0,0;0,5;167;1,0;0,11;-0,47;6;0;nan;21,5;18,6;10,9;19,0;17,0;16,7;16,1;16,1;16,5;23,6;1513
2023-09-01 19:00:00;15,8;99800;95;0,0107;0,0;0,7;206;1,6;-0,31;-0,64;0;0;nan;21,6;18,6;10,9;19,0;16,6;16,6;16,2;16,1;16,4;23,9;1507
2023-09-01 20:00:00;14,6;99860;97;0,0101;0,0;0,6;199;1,9;-0,18;-0,53;0;0;nan;21,7;18,6;10,9;19,0;16,4;16,6;16,2;16,1;16,2;24,0;1506
2023-09-01 21:00:00;14,1;99890;96;0,0097;0,0;0,3;202;1,7;-0,12;-0,3;0;0;nan;21,9;18,6;10,9;19,0;16,1;16,5;16,2;16,1;16,1;24,2;1503
2023-09-01 22:00:00;13,4;99940;98;0,0094;0,02;0,8;166;1,2;0,21;-0,82;0;0;nan;22,0;18,6;10,9;19,0;15,9;16,3;16,3;16,1;16,0;24,2;1502
2023-09-01 23:00:00;nan;nan;nan;nan;0,0;nan;nan;nan;nan;nan;nan;0;nan;22,1;18,6;10,9;19,0;15,7;16,2;16,3;16,1;15,9;24,0;1507
2023-09-02 00:00:00;13,1;99948;97;0,0091;0,04;0,4;168;0,8;0,07;-0,31;0;0;nan;22,2;18,6;10,9;19,0;15,5;16,1;16,3;16,1;15,8;23,6;1513
2023-09-02 01:00:00;12,8;99955;97;0,0089;0,02;0,3;165;0,7;0,08;-0,28;0;0;nan;22,3;18,5;10,9;19,0;15,3;16,0;16,2;16,1;15,7;23,7;1511
2023-09-02 02:00:00;12,4;99980;98;0,0088;0,02;0,4;189;0,9;-0,07;-0,44;0;0;nan;22,4;18,5;10,9;19,0;15,2;15,9;16,2;16,1;15,6;24,1;1505
2023-09-02 03:00:00;12,3;100000;97;0,0087;0,02;0,4;175;0,8;0,03;-0,36;0;0;nan;22,4;18,5;10,9;19,0;15,0;15,8;16,2;16,1;15,6;23,7;1512
2023-09-02 04:00:00;11,9;100020;98;0,0085;0,04;0,6;172;1,0;0,06;-0,4;0;0;nan;22,5;18,5;10,9;19,0;14,9;15,7;16,1;16,1;15,5;23,4;1517
2023-09-02 05:00:00;12,0;100027;99;0,0087;0,04;0,4;135;0,8;0,21;-0,21;44;0;nan;22,5;18,5;10,9;19,0;14,8;15,6;16,1;16,1;15,5;23,2;1521
2023-09-02 06:00:00;14,1;100048;100;0,01;0,0;0,6;140;1,0;0,39;-0,46;118;0;nan;22,6;18,5;10,9;19,0;14,8;15,5;16,1;16,1;15,5;23,3;1519
2023-09-02 07:00:00;17,8;100087;99;0,0126;0,0;0,8;21;1,6;0,26;0,67;283;0;nan;22,6;18,5;10,9;19,0;15,0;15,4;16,0;16,1;15,6;22,8;1528
2023-09-02 08:00:00;19,3;100110;97;0,0136;0,0;0,4;355;1,2;-0,04;0,45;363;0;nan;22,7;18,5;10,9;19,0;15,4;15,5;16,0;16,1;15,8;22,7;1531
2023-09-02 09:00:00;20,7;100130;93;0,0142;0,0;1,0;11;3,0;0,18;0,94;453;0;nan;22,7;18,5;10,9;19,0;15,8;15,6;15,9;16,1;16,0;22,5;1533
2023-09-02 10:00:00;21,7;100170;89;0,0144;0,0;1,4;72;3,5;1,3;0,42;496;0;nan;22,6;18,4;10,9;19,0;16,4;15,8;15,9;16,1;16,2;22,4;1536
2023-09-02 11:00:00;22,5;100215;82;0,0139;0,0;1,2;36;3,0;0,68;0,93;398;0;nan;22,6;18,4;10,9;19,0;16,8;16,0;15,9;16,1;16,4;22,2;1540
2023-09-02 12:00:00;23,7;100238;76;0,0139;0,0;1,4;59;3,6;1,16;0,7;555;0;nan;22,5;18,4;10,9;19,0;17,2;16,2;15,9;16,1;16,7;22,2;1540
2023-09-02 13:00:00;23,8;100294;74;0,0136;0,0;1,4;23;3,7;0,56;1,3;376;0;nan;22,5;18,4;10,9;19,0;17,6;16,5;16,0;16,1;16,8;22,1;1542
2023-09-02 14:00:00;24,3;100298;73;0,0138;0,0;1,4;33;3,3;0,7;1,09;426;0;nan;22,4;18,4;10,9;19,0;17,9;16,7;16,0;16,1;17,0;21,6;1551
2023-09-02 15:00:00;24,3;100310;72;0,0136;0,0;1,4;19;3,0;0,45;1,31;303;0;nan;22,3;18,4;10,9;19,0;18,3;17,0;16,1;16,1;17,2;21,8;1546
2023-09-02 16:00:00;23,8;100320;74;0,0136;0,0;1,2;32;3,4;0,66;1,05;134;0;nan;22,3;18,4;10,9;19,0;18,3;17,2;16,2;16,1;17,2;21,8;1547
2023-09-02 17:00:00;22,8;100360;77;0,0133;0,0;1,1;40;3,2;0,7;0,84;47;0;nan;22,3;18,4;10,9;19,0;18,1;17,3;16,2;16,1;17,1;22,0;1544
2023-09-02 18:00:00;20,7;100423;82;0,0124;0,0;0,9;22;2,1;0,34;0,86;3;0;nan;22,3;18,4;10,9;19,0;18,0;17,4;16,3;16,1;17,0;21,8;1548
2023-09-02 19:00:00;19,9;100510;85;0,0123;0,0;0,9;27;1,9;0,4;0,78;0;0;nan;22,3;18,4;10,9;19,0;17,7;17,4;16,4;16,1;16,9;21,8;1547
2023-09-02 20:00:00;19,6;100560;89;0,0126;0,0;1,1;349;2,2;-0,21;1,08;0;0;nan;22,3;18,4;10,9;19,0;17,6;17,3;16,5;16,1;16,8;21,5;1554
2023-09-02 21:00:00;18,5;100625;94;0,0124;0,0;1,0;313;1,8;-0,7;0,65;0;0;nan;22,3;18,4;10,9;19,0;17,5;17,3;16,5;16,1;16,8;21,2;1560
2023-09-02 22:00:00;17,6;100668;94;0,0118;0,0;0,9;323;1,7;-0,5;0,66;0;0;nan;22,3;18,4;10,9;19,0;17,4;17,3;16,6;16,1;16,7;20,9;1565
2023-09-02 23:00:00;nan;nan;nan;nan;0,0;nan;nan;nan;nan;nan;nan;0;nan;22,3;18,4;10,9;19,0;17,2;17,2;16,6;16,1;16,6;21,0;1564
2023-09-03 00:00:00;16,1;100690;97;0,011;0,0;0,5;298;1,1;-0,43;0,23;0;0;nan;22,4;18,4;10,9;19,0;17,0;17,1;16,6;16,1;16,6;20,8;1568
2023-09-03 01:00:00;15,2;100705;98;0,0105;0,0;0,6;204;1,2;-0,24;-0,55;0;0;nan;22,4;18,4;10,9;19,0;16,8;17,0;16,7;16,2;16,4;20,9;1566
2023-09-03 02:00:00;14,6;100750;98;0,0101;0,03;0,4;222;1,2;-0,28;-0,31;0;0;nan;22,4;18,4;10,9;19,0;16,5;16,9;16,7;16,2;16,3;20,5;1574
2023-09-03 03:00:00;14,4;100765;97;0,0098;0,04;0,3;214;1,0;-0,13;-0,2;0;0;nan;22,4;18,4;10,9;19,0;16,3;16,8;16,7;16,2;16,2;20,5;1575
2023-09-03 04:00:00;13,8;100760;98;0,0096;0,02;0,5;210;1,2;-0,24;-0,42;0;0;nan;22,4;18,4;10,9;19,0;16,2;16,7;16,7;16,2;16,2;20,3;1579
2023-09-03 05:00:00;13,6;100817;98;0,0095;0,04;0,3;63;0,8;0,25;0,13;23;0;nan;22,4;18,3;10,9;19,0;16,0;16,6;16,6;16,2;16,1;20,3;1579
2023-09-03 06:00:00;14,3;100890;99;0,01;0,02;0,4;149;0,8;0,19;-0,32;68;0;nan;22,4;18,3;10,9;19,0;16,0;16,5;16,6;16,2;16,1;20,1;1582
2023-09-03 07:00:00;15,5;100970;100;0,0109;0,0;0,7;36;1,5;0,34;0,48;133;0;nan;22,4;18,3;10,9;19,0;16,1;16,4;16,6;16,2;16,2;20,1;1582
2023-09-03 08:00:00;16,0;101000;100;0,0112;0,0;1,0;65;1,9;0,86;0,4;150;0;nan;22,4;18,3;10,9;19,0;16,3;16,4;16,5;16,2;16,3;20,2;1581
2023-09-03 09:00:00;16,2;101030;100;0,0114;0,0;0,8;82;1,8;0,78;0,11;170;0;nan;22,4;18,3;10,9;19,0;16,6;16,5;16,5;16,2;16,4;20,3;1578
2023-09-03 10:00:00;18,6;100988;96;0,0128;0,0;1,2;99;3,4;1,12;-0,18;419;0;nan;22,4;18,3;10,9;19,0;16,8;16,5;16,5;16,2;16,5;20,4;1577
2023-09-03 11:00:00;20,9;100966;82;0,0125;0,0;1,3;130;2,9;0,97;-0,82;568;0;nan;22,3;18,3;10,9;19,0;17,2;16,7;16,5;16,2;16,7;20,6;1573
2023-09-03 12:00:00;22,1;100950;66;0,0108;0,0;1,3;87;2,5;0,85;0,04;542;0;nan;22,2;18,3;10,9;19,0;17,6;16,8;16,5;16,2;16,9;20,5;1574
2023-09-03 13:00:00;22,4;100953;66;0,0112;0,0;1,3;55;2,9;0,98;0,7;430;0;nan;22,1;18,2;10,9;19,0;17,9;17,0;16,5;16,2;17,1;20,5;1574
2023-09-03 14:00:00;22,6;100973;64;0,0108;0,0;1,5;54;3,1;1,12;0,8;392;0;nan;22,0;18,2;10,9;19,0;18,1;17,2;16,5;16,2;17,2;20,4;1576
2023-09-03 15:00:00;22,6;100968;62;0,0105;0,0;1,1;67;2,3;1,0;0,43;260;0;nan;22,0;18,2;10,9;19,0;18,4;17,4;16,6;16,2;17,3;20,0;1585
2023-09-03 16:00:00;22,4;100966;65;0,0109;0,0;0,9;74;2,0;0,86;0,25;138;0;nan;21,9;18,2;10,9;19,0;18,3;17,5;16,6;16,2;17,3;20,0;1585
2023-09-03 17:00:00;21,3;100973;70;0,0109;0,0;0,5;65;1,0;0,42;0,19;48;0;nan;21,8;18,2;10,9;19,0;18,2;17,6;16,7;16,2;17,2;19,8;1591
2023-09-03 18:00:00;18,9;100992;78;0,0105;0,0;0,3;116;0,9;0,2;-0,1;4;0;nan;21,8;18,2;10,9;19,1;17,9;17,6;16,7;16,3;17,1;19,5;1596
2023-09-03 19:00:00;17,0;101002;85;0,0102;0,0;0,5;211;0,9;-0,26;-0,45;0;0;nan;21,8;18,2;10,9;19,1;17,5;17,5;16,8;16,2;16,9;19,4;1599
2023-09-03 20:00:00;15,7;100990;89;0,0098;0,0;0,6;226;1,8;-0,41;-0,39;0;0;nan;21,8;18,2;10,9;19,1;17,2;17,4;16,8;16,3;16,7;19,5;1597
2023-09-03 21:00:00;14,2;100990;91;0,0091;0,0;0,4;254;1,2;-0,27;-0,08;0;0;nan;21,8;18,2;10,9;19,1;16,9;17,3;16,9;16,3;16,6;19,8;1591
2023-09-03 22:00:00;13,4;100980;93;0,0088;0,0;0,4;255;1,2;-0,38;-0,1;0;0;nan;21,8;18,2;10,9;19,1;16,6;17,1;16,9;16,3;16,4;19,8;1589
2023-09-03 23:00:00;12,7;100990;95;0,0086;0,0;0,5;216;1,1;-0,28;-0,38;0;0;nan;21,8;18,2;10,9;19,1;16,3;17,0;16,9;16,3;16,3;19,8;1590
2023-09-04 00:00:00;12,4;100980;96;0,0085;0,0;0,5;182;1,2;-0,02;-0,52;0;0;nan;21,8;18,2;10,9;19,1;16,0;16,8;16,8;16,3;16,1;19,8;1589
2023-09-04 01:00:00;11,4;100945;96;0,008;0,03;0,4;178;0,9;0,01;-0,34;0;0;nan;21,8;18,2;10,9;19,1;15,7;16,6;16,8;16,3;16,0;19,3;1600
2023-09-04 02:00:00;10,8;100900;97;0,0078;0,02;0,3;198;1,0;-0,11;-0,33;0;0;nan;21,8;18,2;10,9;19,1;15,4;16,4;16,8;16,3;15,9;19,5;1597
2023-09-04 03:00:00;10,4;100910;97;0,0076;0,06;0,4;147;0,8;0,19;-0,29;0;0;nan;21,8;18,2;10,9;19,1;15,2;16,3;16,7;16,3;15,8;19,5;1597
2023-09-04 04:00:00;9,5;100910;98;0,0072;0,0;0,4;191;0,8;-0,08;-0,42;0;0;nan;21,8;18,1;10,9;19,1;15,0;16,1;16,7;16,3;15,6;19,4;1598
2023-09-04 05:00:00;10,1;100890;100;0,0076;0,0;0,5;188;0,8;-0,07;-0,52;77;0;nan;21,8;18,1;10,9;19,1;14,7;15,9;16,6;16,4;15,5;19,4;1599
2023-09-04 06:00:00;12,5;100870;100;0,009;0,08;0,6;146;1,2;0,26;-0,39;162;0;nan;21,8;18,1;10,9;19,1;14,7;15,7;16,5;16,4;15,5;19,3;1602
2023-09-04 07:00:00;14,8;100830;98;0,0103;0,0;1,1;116;2,2;0,94;-0,46;285;0;nan;21,8;18,1;10,9;19,1;14,8;15,6;16,4;16,3;15,6;19,2;1604
2023-09-04 08:00:00;17,8;100810;90;0,0113;0,0;2,3;138;4,4;1,52;-1,69;388;0;nan;21,8;18,1;10,9;19,1;15,2;15,6;16,4;16,3;15,8;19,2;1604
2023-09-04 09:00:00;19,9;100780;82;0,0118;0,0;2,5;129;5,0;1,98;-1,58;480;0;nan;21,7;18,1;10,9;19,1;15,7;15,7;16,3;16,3;16,0;18,9;1611
2023-09-04 10:00:00;21,7;100730;73;0,0118;0,0;3,6;130;6,9;2,74;-2,3;567;0;nan;21,6;18,0;10,9;19,1;16,3;15,9;16,2;16,3;16,3;18,9;1610
2023-09-04 11:00:00;22,7;100710;67;0,0115;0,0;4,3;137;8,8;2,93;-3,1;616;0;nan;21,5;18,0;10,9;19,1;16,9;16,1;16,2;16,3;16,6;18,7;1616
2023-09-04 12:00:00;24,2;100650;60;0,0112;0,0;4,2;145;7,4;2,38;-3,46;580;0;nan;21,4;18,0;10,9;19,1;17,5;16,4;16,2;16,3;16,9;18,5;1621
2023-09-04 13:00:00;24,9;100610;57;0,0111;0,0;3,8;140;7,5;2,46;-2,9;542;0;nan;21,3;18,0;10,9;19,1;17,9;16,7;16,2;16,3;17,1;18,2;1627
2023-09-04 14:00:00;25,9;100545;52;0,0109;0,0;3,9;132;8,1;2,88;-2,58;481;0;nan;21,2;18,0;10,9;19,1;18,1;16,9;16,3;16,3;17,2;18,1;1630
2023-09-04 15:00:00;26,6;100490;47;0,0101;0,0;3,9;148;6,7;2,1;-3,34;332;0;nan;21,1;17,9;10,9;19,1;18,4;17,2;16,3;16,2;17,3;18,1;1630
2023-09-04 16:00:00;26,4;100468;47;0,01;0,0;3,2;141;5,5;2,0;-2,49;171;0;nan;21,0;17,9;10,9;19,1;18,3;17,4;16,4;16,2;17,3;18,0;1633
2023-09-04 17:00:00;25,2;100460;51;0,0102;0,0;2,3;146;5,4;1,29;-1,9;48;0;nan;20,9;17,9;10,9;19,1;18,2;17,5;16,5;16,2;17,2;18,2;1627
2023-09-04 18:00:00;22,4;100500;58;0,0098;0,0;1,6;130;4,7;1,22;-1,04;3;0;nan;20,9;17,9;10,9;19,1;17,9;17,5;16,6;16,2;17,1;18,4;1623
2023-09-04 19:00:00;20,4;100502;65;0,0096;0,0;1,4;156;2,2;0,55;-1,25;0;0;nan;20,8;17,9;10,9;19,1;17,5;17,4;16,6;16,2;16,9;18,3;1625
2023-09-04 20:00:00;17,9;100500;73;0,0093;0,0;0,6;195;1,2;-0,14;-0,5;0;0;nan;20,8;17,9;10,9;19,1;17,2;17,4;16,7;16,2;16,7;18,3;1626
2023-09-04 21:00:00;16,2;100470;78;0,009;0,0;0,5;196;0,9;-0,14;-0,48;0;0;nan;20,8;17,9;10,9;19,1;16,8;17,2;16,7;16,2;16,5;17,9;1635
2023-09-04 22:00:00;14,9;100420;82;0,0086;0,0;1,0;179;1,8;0,01;-0,92;0;0;nan;20,8;17,9;10,9;19,1;16,5;17,1;16,7;16,2;16,4;18,0;1634
2023-09-04 23:00:00;14,8;100370;82;0,0086;0,0;1,0;202;2,6;-0,38;-0,94;0;0;nan;20,8;17,9;10,9;19,1;16,3;16,9;16,8;16,2;16,2;17,9;1635
2023-09-05 00:00:00;13,6;100340;86;0,0083;0,0;0,6;207;1,3;-0,26;-0,52;0;0;nan;20,8;17,9;10,9;19,1;16,1;16,7;16,7;16,3;16,1;17,8;1637
2023-09-05 01:00:00;13,8;100300;84;0,0082;0,0;0,5;267;1,1;-0,5;-0,03;0;0;nan;20,8;17,9;10,9;19,1;15,8;16,6;16,7;16,3;16,0;18,1;1631
2023-09-05 02:00:00;14,0;100280;83;0,0083;0,0;0,6;187;1,2;-0,07;-0,57;0;0;nan;20,8;17,9;10,9;19,1;15,6;16,4;16,7;16,3;15,9;18,2;1628
2023-09-05 03:00:00;14,9;100237;80;0,0085;0,0;1,1;157;2,1;0,34;-0,81;0;0;nan;20,8;17,9;10,9;19,1;15,4;16,3;16,6;16,3;15,8;18,0;1632
2023-09-05 04:00:00;14,4;100235;82;0,0084;0,0;1,0;111;1,9;0,94;-0,36;0;0;nan;20,8;17,9;10,9;19,1;15,3;16,2;16,6;16,3;15,8;18,1;1631
2023-09-05 05:00:00;15,1;100250;80;0,0085;0,0;1,3;165;2,4;0,33;-1,26;20;0;nan;20,8;17,9;10,9;19,1;15,1;16,0;16,5;16,3;15,7;18,1;1630
2023-09-05 06:00:00;18,0;100245;79;0,0102;0,0;1,3;150;2,3;0,65;-1,14;177;0;nan;20,8;17,9;10,9;19,1;15,2;15,9;16,5;16,3;15,7;18,0;1633
2023-09-05 07:00:00;nan;nan;nan;nan;0,0;nan;nan;nan;nan;nan;nan;0;nan;20,7;17,9;10,9;19,1;15,4;15,9;16,4;16,3;15,8;18,0;1633
2023-09-05 08:00:00;22,1;100233;68;0,0112;0,0;2,5;150;4,4;1,24;-2,12;376;0;nan;20,7;17,8;10,9;19,1;15,8;15,9;16,4;16,3;16,0;17,7;1640
2023-09-05 09:00:00;24,5;100200;61;0,0117;0,0;3,2;141;6,2;1,99;-2,5;495;0;nan;20,6;17,8;10,9;19,1;16,3;16,0;16,3;16,3;16,3;17,8;1639
2023-09-05 10:00:00;26,2;100175;56;0,012;0,0;3,7;139;6,9;2,43;-2,76;596;0;nan;20,5;17,8;10,9;19,1;16,9;16,2;16,3;16,3;16,6;17,5;1645
2023-09-05 11:00:00;27,8;100144;52;0,0121;0,0;4,0;141;6,7;2,51;-3,15;561;0;nan;20,3;17,7;10,9;19,1;17,5;16,5;16,3;16,3;16,9;17,3;1652
2023-09-05 12:00:00;29,0;100108;49;0,0123;0,0;3,9;138;7,0;2,55;-2,87;606;0;nan;20,2;17,7;10,9;19,1;18,1;16,8;16,3;16,3;17,2;17,2;1653
2023-09-05 13:00:00;29,5;100074;46;0,0117;0,0;4,3;142;7,6;2,64;-3,33;542;0;nan;20,1;17,7;10,9;19,1;18,5;17,1;16,3;16,3;17,4;17,2;1653
2023-09-05 14:00:00;29,8;100035;44;0,0114;0,0;4,6;145;7,7;2,69;-3,79;438;0;nan;19,9;17,7;10,9;19,1;18,8;17,4;16,4;16,2;17,5;17,3;1651
2023-09-05 15:00:00;29,7;100020;43;0,0112;0,0;4,2;147;6,7;2,29;-3,54;372;0;nan;19,8;17,7;10,9;19,1;18,9;17,6;16,4;16,2;17,6;17,3;1650
2023-09-05 16:00:00;29,4;100000;43;0,011;0,0;4,3;143;9,2;2,61;-3,46;270;0;nan;19,7;17,7;10,9;19,1;18,9;17,8;16,6;16,2;17,6;17,4;1649
2023-09-05 17:00:00;28,0;100057;47;0,0111;0,0;3,1;143;6,3;1,84;-2,47;85;0;nan;19,6;17,7;10,9;19,1;18,7;17,9;16,6;16,2;17,5;17,1;1657
2023-09-05 18:00:00;24,5;100140;57;0,0109;0,0;2,0;161;4,0;0,64;-1,85;5;0;nan;19,6;17,7;10,9;19,1;18,4;17,9;16,7;16,2;17,3;16,8;1664
2023-09-05 19:00:00;20,9;100205;67;0,0103;0,0;1,5;165;2,4;0,4;-1,49;0;0;nan;19,6;17,7;10,9;19,1;18,1;17,9;16,8;16,2;17,1;16,7;1667
2023-09-05 20:00:00;19,3;100215;73;0,0102;0,0;1,3;170;2,4;0,22;-1,31;0;0;nan;19,6;17,7;10,9;19,1;17,7;17,8;16,9;16,2;17,0;16,7;1668
2023-09-05 21:00:00;17,3;100220;78;0,0096;0,0;0,4;188;1,6;-0,06;-0,42;0;0;nan;19,6;17,7;10,9;19,1;17,3;17,6;16,9;16,2;16,8;16,7;1667
2023-09-05 22:00:00;15,6;100225;84;0,0092;0,0;0,6;212;1,1;-0,32;-0,5;0;0;nan;19,5;17,6;10,9;19,1;17,0;17,4;17,0;16,3;16,6;16,7;1668
2023-09-05 23:00:00;14,7;100230;87;0,009;0,0;0,6;196;1,5;-0,17;-0,59;0;0;nan;19,5;17,6;10,9;19,1;16,7;17,3;17,0;16,3;16,5;16,7;1668
2023-09-06 00:00:00;14,1;100230;89;0,0089;0,0;0,3;87;0,6;0,33;0,02;0;0;nan;19,5;17,6;10,9;19,1;16,4;17,1;17,0;16,3;16,3;16,6;1670
2023-09-06 01:00:00;13,5;100233;90;0,0087;0,0;0,5;228;1,8;-0,31;-0,29;0;0;nan;19,5;17,6;10,9;19,1;16,1;16,9;16,9;16,3;16,2;16,4;1677
2023-09-06 02:00:00;12,6;100227;92;0,0084;0,0;0,6;220;1,1;-0,36;-0,43;0;0;nan;19,5;17,6;10,9;19,1;15,9;16,8;16,9;16,3;16,1;16,0;1688
2023-09-06 03:00:00;12,0;100254;94;0,0082;0,0;0,6;205;1,0;-0,24;-0,5;0;0;nan;19,5;17,6;10,9;19,1;15,6;16,6;16,8;16,3;16,0;15,8;1692
2023-09-06 04:00:00;11,3;100270;94;0,0078;0,0;0,4;162;1,0;0,14;-0,42;0;0;nan;19,5;17,6;10,9;19,1;15,4;16,4;16,8;16,4;15,9;15,9;1691
2023-09-06 05:00:00;12,0;100285;96;0,0084;0,02;0,4;186;1,2;-0,04;-0,38;46;0;nan;19,5;17,6;10,9;19,1;15,2;16,2;16,7;16,4;15,8;15,8;1693
2023-09-06 06:00:00;14,4;100277;98;0,01;0,02;0,3;175;0,6;0,03;-0,32;156;0;nan;19,5;17,6;10,9;19,1;15,2;16,1;16,7;16,4;15,8;15,8;1694
2023-09-06 07:00:00;18,4;100260;87;0,0115;0,0;1,1;135;2,3;0,79;-0,79;233;0;nan;19,5;17,6;10,9;19,1;15,4;16,0;16,6;16,3;15,9;15,8;1695
2023-09-06 08:00:00;21,0;100247;75;0,0116;0,0;2,5;143;4,9;1,48;-1,96;360;0;nan;19,4;17,6;10,9;19,1;15,8;16,0;16,5;16,3;16,1;15,8;1693
2023-09-06 09:00:00;23,2;100250;65;0,0115;0,0;3,3;145;6,2;1,86;-2,67;490;0;nan;19,3;17,5;10,9;19,1;16,3;16,1;16,5;16,3;16,3;15,7;1696
2023-09-06 10:00:00;25,8;100242;54;0,0112;0,0;4,1;145;7,3;2,34;-3,32;570;0;nan;19,2;17,5;10,9;19,1;17,0;16,3;16,4;16,3;16,6;15,7;1696
2023-09-06 11:00:00;26,8;100230;48;0,0105;0,0;4,5;146;7,9;2,55;-3,75;578;0;nan;19,0;17,4;10,9;19,1;17,6;16,5;16,4;16,3;17,0;15,8;1694
2023-09-06 12:00:00;27,6;100205;46;0,0106;0,0;4,3;139;8,1;2,82;-3,3;584;0;nan;18,9;17,4;10,9;19,1;18,1;16,9;16,4;16,3;17,2;15,8;1694
2023-09-06 13:00:00;28,5;100170;45;0,0109;0,0;4,0;142;8,1;2,47;-3,16;560;0;nan;18,8;17,4;10,9;19,1;18,4;17,2;16,4;16,3;17,4;15,8;1695
2023-09-06 14:00:00;28,6;100140;44;0,0106;0,0;4,2;145;8,0;2,42;-3,4;448;0;nan;18,7;17,4;10,9;19,1;18,7;17,4;16,5;16,3;17,5;15,7;1697
2023-09-06 15:00:00;28,6;100120;44;0,0108;0,0;3,9;147;6,2;2,1;-3,22;296;0;nan;18,6;17,4;10,9;19,1;18,9;17,6;16,6;16,3;17,6;15,8;1694
2023-09-06 16:00:00;28,4;100122;46;0,011;0,0;3,2;143;5,8;1,94;-2,54;181;0;nan;18,5;17,3;10,9;19,1;18,8;17,8;16,6;16,3;17,5;15,6;1701
2023-09-06 17:00:00;27,4;100135;49;0,011;0,0;2,1;142;3,7;1,3;-1,66;54;0;nan;18,4;17,3;10,9;19,1;18,6;17,9;16,7;16,3;17,5;15,5;1701
2023-09-06 18:00:00;24,8;100160;57;0,0111;0,0;1,3;149;2,7;0,69;-1,13;6;0;nan;18,4;17,3;10,9;19,1;18,3;17,9;16,8;16,3;17,3;15,6;1698
2023-09-06 19:00:00;22,1;100210;64;0,0106;0,0;0,8;188;1,7;-0,11;-0,75;0;0;nan;18,3;17,3;10,9;19,1;17,9;17,8;16,9;16,3;17,1;15,6;1701
2023-09-06 20:00:00;19,4;100250;72;0,0101;0,0;1,0;220;1,6;-0,65;-0,77;0;0;nan;18,3;17,3;10,9;19,1;17,5;17,7;16,9;16,3;16,9;15,6;1700
2023-09-06 21:00:00;16,7;100280;81;0,0096;0,0;0,6;209;1,1;-0,28;-0,51;0;0;nan;18,3;17,3;10,9;19,1;17,2;17,5;17,0;16,3;16,7;15,5;1703
2023-09-06 22:00:00;15,4;100290;85;0,0093;0,0;0,6;209;1,8;-0,3;-0,54;0;0;nan;18,3;17,3;10,9;19,1;16,8;17,4;17,0;16,3;16,6;15,3;1709
2023-09-06 23:00:00;14,2;100297;88;0,0089;0,0;0,7;208;1,2;-0,33;-0,62;0;0;nan;18,3;17,3;10,9;19,1;16,5;17,2;17,0;16,3;16,4;15,2;1712
2023-09-07 00:00:00;13,9;100280;89;0,0088;0,0;1,0;216;1,4;-0,59;-0,8;0;0;nan;18,3;17,3;10,9;19,1;16,2;17,0;17,0;16,3;16,3;15,2;1713
2023-09-07 01:00:00;13,2;100250;91;0,0086;0,0;0,7;213;1,8;-0,37;-0,58;0;0;nan;18,3;17,3;10,9;19,1;16,0;16,9;16,9;16,3;16,1;15,3;1710
2023-09-07 02:00:00;12,4;100212;93;0,0083;0,0;0,9;220;1,3;-0,56;-0,66;0;0;nan;18,2;17,3;10,9;19,1;15,7;16,7;16,9;16,4;16,0;15,3;1707
2023-09-07 03:00:00;12,2;100200;92;0,0082;0,0;1,0;222;1,4;-0,69;-0,76;0;0;nan;18,2;17,3;10,9;19,1;15,5;16,5;16,9;16,4;15,9;15,5;1701
2023-09-07 04:00:00;11,5;100200;94;0,008;0,04;0,7;204;1,3;-0,29;-0,67;0;0;nan;18,2;17,3;10,9;19,1;15,3;16,3;16,8;16,4;15,8;15,6;1699
2023-09-07 05:00:00;11,1;100190;95;0,0078;0,02;0,6;168;1,2;0,13;-0,59;17;0;nan;18,2;17,3;10,9;19,1;15,0;16,2;16,7;16,4;15,7;15,5;1702
2023-09-07 06:00:00;12,5;100200;98;0,0088;0,02;0,5;189;0,8;-0,07;-0,46;108;0;nan;18,2;17,3;10,9;19,1;15,0;16,0;16,7;16,4;15,7;15,4;1704
2023-09-07 07:00:00;16,8;100200;90;0,0107;0,0;0,8;129;1,8;0,66;-0,52;244;0;nan;18,2;17,3;10,9;19,1;15,2;15,9;16,6;16,4;15,8;15,3;1708
2023-09-07 08:00:00;21,9;100175;76;0,0124;0,0;1,7;136;3,2;1,2;-1,24;405;0;nan;18,1;17,2;10,9;19,1;15,6;15,9;16,5;16,4;16,0;15,3;1709
2023-09-07 09:00:00;24,5;100150;68;0,0131;0,0;2,4;125;4,7;1,95;-1,38;491;0;nan;18,0;17,2;10,9;19,1;16,2;16,0;16,5;16,4;16,3;15,4;1707
2023-09-07 10:00:00;26,0;100120;62;0,013;0,0;2,9;132;5,6;2,15;-1,93;559;0;nan;17,9;17,2;10,9;19,1;16,9;16,2;16,4;16,4;16,6;15,4;1707
2023-09-07 11:00:00;27,4;100075;56;0,0128;0,0;3,8;141;7,7;2,4;-2,94;547;0;nan;17,8;17,1;10,9;19,1;17,6;16,5;16,4;16,4;16,9;15,3;1707
2023-09-07 12:00:00;28,1;100050;51;0,0122;0,0;4,5;137;8,0;3,06;-3,27;600;0;nan;17,7;17,1;10,9;19,1;18,1;16,8;16,4;16,3;17,2;15,2;1712
2023-09-07 13:00:00;28,7;100010;50;0,0123;0,0;4,3;139;7,7;2,8;-3,27;551;0;nan;17,6;17,1;10,9;19,1;18,5;17,1;16,4;16,3;17,4;15,3;1708
2023-09-07 14:00:00;29,1;99990;47;0,0118;0,0;4,2;134;6,8;3,05;-2,94;455;0;nan;17,5;17,0;10,9;19,1;18,8;17,4;16,5;16,3;17,5;15,3;1708
2023-09-07 15:00:00;29,2;99980;47;0,0119;0,0;4,1;140;7,1;2,63;-3,09;383;0;nan;17,4;17,0;10,9;19,1;19,0;17,7;16,6;16,3;17,6;15,0;1717
2023-09-07 16:00:00;29,0;99960;48;0,0119;0,0;3,8;141;7,6;2,34;-2,92;202;0;nan;17,3;17,0;10,9;19,1;19,0;17,8;16,6;16,3;17,6;15,2;1713
2023-09-07 17:00:00;27,8;99977;52;0,0121;0,0;2,4;144;4,2;1,42;-1,95;42;0;nan;17,2;17,0;10,9;19,1;18,8;17,9;16,7;16,3;17,5;15,1;1714
2023-09-07 18:00:00;25,1;100020;56;0,0111;0,0;1,9;149;3,3;0,95;-1,61;4;0;nan;17,2;17,0;10,9;19,1;18,5;18,0;16,8;16,3;17,4;15,0;1717
2023-09-07 19:00:00;21,4;100076;67;0,0107;0,0;1,2;171;2,2;0,18;-1,18;0;0;nan;17,2;17,0;10,9;19,1;18,1;17,9;16,9;16,3;17,2;15,0;1717
2023-09-07 20:00:00;19,0;100105;74;0,0102;0,0;0,7;201;1,3;-0,24;-0,64;0;0;nan;17,1;17,0;10,9;19,1;17,7;17,8;17,0;16,3;17,0;15,0;1719
2023-09-07 21:00:00;16,8;100110;82;0,0098;0,0;0,8;211;1,7;-0,43;-0,71;0;0;nan;17,1;17,0;10,9;19,1;17,3;17,7;17,0;16,3;16,8;14,9;1721
2023-09-07 22:00:00;15,6;100110;85;0,0094;0,0;0,8;215;1,6;-0,42;-0,6;0;0;nan;17,1;17,0;10,9;19,1;17,0;17,5;17,0;16,3;16,7;15,1;1716
2023-09-07 23:00:00;14,5;100100;89;0,0092;0,0;1,0;134;1,8;0,69;-0,67;0;0;nan;17,1;17,0;10,9;19,1;16,8;17,3;17,0;16,3;16,5;15,1;1714
2023-09-08 00:00:00;13,8;100095;90;0,0088;0,0;0,6;229;1,4;-0,39;-0,34;0;0;nan;17,1;17,0;10,9;19,1;16,5;17,2;17,0;16,4;16,4;15,3;1708
2023-09-08 01:00:00;nan;nan;nan;nan;0,0;nan;nan;nan;nan;nan;nan;0;nan;17,1;17,0;10,9;19,1;16,2;17,0;17,0;16,4;16,3;15,2;1713
2023-09-08 02:00:00;13,2;100044;92;0,0087;0,0;0,8;219;1,5;-0,5;-0,62;0;0;nan;17,0;16,9;10,9;19,1;16,0;16,8;17,0;16,4;16,2;15,1;1713
2023-09-08 03:00:00;13,0;100030;92;0,0086;0,0;0,8;203;1,7;-0,31;-0,72;0;0;nan;17,0;16,9;10,9;19,1;15,8;16,7;16,9;16,4;16,1;15,0;1719
2023-09-08 04:00:00;12,7;100010;92;0,0085;0,0;0,8;211;1,6;-0,42;-0,7;0;0;nan;17,0;16,9;10,9;19,1;15,6;16,5;16,9;16,4;16,0;14,9;1720
2023-09-08 05:00:00;13,6;100003;92;0,009;0,0;0,6;203;1,2;-0,25;-0,59;66;0;nan;17,0;16,9;10,9;19,1;15,4;16,4;16,8;16,4;15,9;14,9;1722
2023-09-08 06:00:00;15,7;99990;94;0,0105;0,02;0,4;173;0,8;0,05;-0,41;147;0;nan;17,0;16,9;10,9;19,1;15,4;16,2;16,7;16,4;15,9;15,0;1718